TimePDT,TemperatureF,Dew PointF,Humidity,Sea Level PressureIn,VisibilityMPH,Wind Direction,Wind SpeedMPH,Gust SpeedMPH,PrecipitationIn,Events,Conditions,WindDirDegrees,DateUTC
12:52 AM,46.9,28.0,48,30.01,10.0,Calm,Calm,-,N/A,,Clear,0,2013-05-18 07:52:00
1:52 AM,46.0,27.0,47,30.01,10.0,NE,3.5,-,N/A,,Clear,50,2013-05-18 08:52:00
2:52 AM,46.0,26.1,46,30.02,10.0,NE,3.5,-,N/A,,Clear,50,2013-05-18 09:52:00
3:52 AM,46.9,25.0,42,30.01,10.0,NE,4.6,-,N/A,,Clear,40,2013-05-18 10:52:00
4:52 AM,46.9,25.0,42,30.01,10.0,NNE,4.6,-,N/A,,Clear,30,2013-05-18 11:52:00
5:52 AM,46.9,28.9,50,30.03,10.0,NNE,3.5,-,N/A,,Clear,20,2013-05-18 12:52:00
6:52 AM,48.0,30.0,50,30.04,10.0,NE,4.6,-,N/A,,Clear,50,2013-05-18 13:52:00
7:52 AM,52.0,30.9,45,30.05,10.0,North,3.5,-,N/A,,Clear,360,2013-05-18 14:52:00
8:52 AM,53.1,34.0,48,30.07,10.0,Calm,Calm,-,N/A,,Clear,0,2013-05-18 15:52:00
9:52 AM,54.0,34.0,47,30.07,10.0,Variable,3.5,-,N/A,,Clear,0,2013-05-18 16:52:00
10:52 AM,55.9,35.1,45,30.07,10.0,Variable,3.5,-,N/A,,Clear,0,2013-05-18 17:52:00
11:52 AM,55.9,36.0,47,30.09,10.0,Variable,5.8,-,N/A,,Partly Cloudy,0,2013-05-18 18:52:00
12:52 PM,57.0,37.9,49,30.08,10.0,Calm,Calm,-,N/A,,Mostly Cloudy,0,2013-05-18 19:52:00
1:52 PM,57.9,37.9,47,30.07,10.0,SSW,8.1,18.4,N/A,,Mostly Cloudy,210,2013-05-18 20:52:00
2:52 PM,57.9,37.0,46,30.08,10.0,SSW,10.4,18.4,N/A,,Partly Cloudy,210,2013-05-18 21:52:00
3:52 PM,59.0,35.1,41,30.06,10.0,WSW,9.2,-,N/A,,Clear,250,2013-05-18 22:52:00
4:52 PM,59.0,32.0,36,30.06,10.0,WSW,8.1,17.3,N/A,,Clear,250,2013-05-18 23:52:00
5:52 PM,57.9,33.1,39,30.06,10.0,West,9.2,-,N/A,,Clear,270,2013-05-19 00:52:00
6:52 PM,57.0,36.0,45,30.06,10.0,Variable,6.9,-,N/A,,Clear,0,2013-05-19 01:52:00
7:52 PM,54.0,37.0,53,30.06,10.0,West,4.6,-,N/A,,Clear,280,2013-05-19 02:52:00
8:52 PM,52.0,37.9,59,30.06,10.0,Calm,Calm,-,N/A,,Clear,0,2013-05-19 03:52:00
9:52 PM,51.1,37.9,61,30.07,10.0,Calm,Calm,-,N/A,,Clear,0,2013-05-19 04:52:00
10:52 PM,51.1,37.0,59,30.06,10.0,Calm,Calm,-,N/A,,Clear,0,2013-05-19 05:52:00
11:52 PM,51.1,37.0,59,30.07,10.0,Calm,Calm,-,N/A,,Clear,0,2013-05-19 06:52:00